Location: Barrio Las Umbrías
(40.4173°N, 4.8685°W)
Time: 12:13:17
(UTC+00:00)

USA 229 DEB - Pass Details

Date: 17 August 2022
Orbit: 929 x 1283 km, 63.4° (Epoch: 21 September)

Event Time Altitude Azimuth Distance (km) Brightness Sun altitude
Rises 20:29:22 0° 204° (SSW) 3,578 6.4 -13.8°
Reaches altitude 10° 20:31:50 10° 202° (SSW) 2,655 5.7 -14.2°
Maximum altitude 20:37:58 69° 120° (ESE) 1,047 3.4 -15.2°
Drops below altitude 10° 20:44:34 10° 39° (NE) 2,851 5.9 -16.2°
Sets 20:47:18 0° 37° (NE) 3,860 6.6 -16.7°
